TimeEDT,TemperatureF,Dew PointF,Humidity,Sea Level PressureIn,VisibilityMPH,Wind Direction,Wind SpeedMPH,Gust SpeedMPH,PrecipitationIn,Events,Conditions,WindDirDegrees,DateUTC
12:53 AM,64.0,61.0,90,30.14,10.0,Calm,Calm,-,N/A,,Scattered Clouds,0,2013-06-23 04:53:00
1:53 AM,63.0,60.1,90,30.12,10.0,Calm,Calm,-,N/A,,Partly Cloudy,0,2013-06-23 05:53:00
2:53 AM,62.1,60.1,93,30.11,10.0,North,3.5,-,N/A,,Partly Cloudy,10,2013-06-23 06:53:00
3:53 AM,62.1,59.0,90,30.10,10.0,Calm,Calm,-,N/A,,Partly Cloudy,0,2013-06-23 07:53:00
4:53 AM,60.1,57.9,93,30.10,10.0,NE,3.5,-,N/A,,Partly Cloudy,50,2013-06-23 08:53:00
5:53 AM,60.1,57.9,93,30.12,10.0,Calm,Calm,-,N/A,,Scattered Clouds,0,2013-06-23 09:53:00
6:53 AM,60.1,57.9,93,30.15,10.0,North,3.5,-,N/A,,Scattered Clouds,360,2013-06-23 10:53:00
7:53 AM,66.9,62.1,84,30.16,10.0,North,3.5,-,N/A,,Partly Cloudy,360,2013-06-23 11:53:00
8:53 AM,72.0,62.1,71,30.19,10.0,Calm,Calm,-,N/A,,Overcast,0,2013-06-23 12:53:00
9:53 AM,75.0,63.0,66,30.19,10.0,East,3.5,-,N/A,,Mostly Cloudy,90,2013-06-23 13:53:00
10:53 AM,77.0,62.1,60,30.19,10.0,Calm,Calm,-,N/A,,Mostly Cloudy,0,2013-06-23 14:53:00
11:53 AM,80.1,62.1,54,30.19,10.0,Calm,Calm,-,N/A,,Mostly Cloudy,0,2013-06-23 15:53:00
12:53 PM,81.0,62.1,52,30.18,10.0,Variable,6.9,-,N/A,,Mostly Cloudy,0,2013-06-23 16:53:00
1:53 PM,84.0,61.0,46,30.14,10.0,WSW,5.8,-,N/A,,Partly Cloudy,250,2013-06-23 17:53:00
2:53 PM,84.0,57.0,40,30.12,10.0,Variable,3.5,-,N/A,,Partly Cloudy,0,2013-06-23 18:53:00
3:53 PM,84.0,57.0,40,30.10,10.0,Calm,Calm,-,N/A,,Scattered Clouds,0,2013-06-23 19:53:00
4:53 PM,84.9,59.0,41,30.09,10.0,ESE,4.6,-,N/A,,Scattered Clouds,110,2013-06-23 20:53:00
5:53 PM,84.9,60.1,43,30.09,10.0,Variable,4.6,-,N/A,,Partly Cloudy,0,2013-06-23 21:53:00
6:53 PM,84.0,60.1,44,30.08,10.0,South,4.6,-,N/A,,Scattered Clouds,190,2013-06-23 22:53:00
7:53 PM,81.0,60.1,49,30.08,10.0,South,4.6,-,N/A,,Mostly Cloudy,190,2013-06-23 23:53:00
8:53 PM,77.0,59.0,54,30.09,10.0,SW,3.5,-,N/A,,Mostly Cloudy,230,2013-06-24 00:53:00
9:53 PM,75.9,61.0,60,30.11,10.0,Calm,Calm,-,N/A,,Mostly Cloudy,0,2013-06-24 01:53:00
10:53 PM,71.1,64.0,78,30.13,10.0,Calm,Calm,-,N/A,,Mostly Cloudy,0,2013-06-24 02:53:00
11:53 PM,72.0,62.1,71,30.14,10.0,North,3.5,-,N/A,,Mostly Cloudy,360,2013-06-24 03:53:00